{"data":{"norad_id":49205,"intl_designator":"2021-083V","name":"ONEWEB-0339","alt_names":[],"object_type":"PAYLOAD","status":"ACTIVE","operator":null,"country":"UK","launch_date":"2021-09-14","launch_site_code":"TYMSC","launch_vehicle":null,"mission":null,"orbit_class":"UNKNOWN","rcs_meters":null,"size_class":null,"mass_kg":null,"dimensions":null,"purposes":["comms"],"wikipedia_slug":null,"has_3d_model":false,"image_url":null,"decayed_at":null,"tle_current":{"epoch":"2026-09-19T10:23:13.168320Z","epoch_age_seconds":96366,"freshness":"FRESH","line1":"1 49205U 21083V   26262.43279130 -.00000058  00000+0 -19387-3 0  9996","line2":"2 49205  87.8916 301.4722 0001947  90.1188 270.0164 13.13468819243269","mean_motion":13.13468819,"eccentricity":0.0001947,"inclination_deg":87.8916,"raan_deg":301.4722,"arg_perigee_deg":90.1188,"mean_anomaly_deg":270.0164,"bstar":-0.00019387,"rev_number":24326,"period_min":109.63336008968,"perigee_km":1208.2925828372,"apogee_km":1211.2473138029,"semimajor_km":7587.9069483201,"source":"CELESTRAK","updated_at":"2026-09-20T09:00:44.664338Z"}}}